TimeEST,TemperatureF,Dew PointF,Humidity,Sea Level PressureIn,VisibilityMPH,Wind Direction,Wind SpeedMPH,Gust SpeedMPH,PrecipitationIn,Events,Conditions,WindDirDegrees,DateUTC
12:53 AM,68.0,66.0,93,30.13,10.0,Calm,Calm,-,N/A,,Clear,0,2013-01-07 05:53:00
1:53 AM,68.0,66.9,96,30.12,10.0,Calm,Calm,-,N/A,,Clear,0,2013-01-07 06:53:00
2:53 AM,68.0,66.0,93,30.11,10.0,NNW,3.5,-,N/A,,Clear,330,2013-01-07 07:53:00
3:53 AM,68.0,66.9,96,30.10,10.0,Calm,Calm,-,N/A,,Clear,0,2013-01-07 08:53:00
4:53 AM,66.9,66.9,100,30.10,10.0,Calm,Calm,-,N/A,,Clear,0,2013-01-07 09:53:00
5:53 AM,66.0,66.0,100,30.12,10.0,Calm,Calm,-,N/A,,Scattered Clouds,0,2013-01-07 10:53:00
6:11 AM,66.2,66.2,100,30.12,10.0,Calm,Calm,-,N/A,,Mostly Cloudy,0,2013-01-07 11:11:00
6:24 AM,66.2,66.2,100,30.12,10.0,Calm,Calm,-,N/A,,Scattered Clouds,0,2013-01-07 11:24:00
6:43 AM,66.2,66.2,100,30.13,10.0,Calm,Calm,-,N/A,,Mostly Cloudy,0,2013-01-07 11:43:00
6:53 AM,66.0,66.0,100,30.13,10.0,Calm,Calm,-,N/A,,Scattered Clouds,0,2013-01-07 11:53:00
7:53 AM,66.9,66.0,97,30.15,10.0,Calm,Calm,-,N/A,,Clear,0,2013-01-07 12:53:00
8:53 AM,70.0,68.0,93,30.17,10.0,North,6.9,-,N/A,,Overcast,360,2013-01-07 13:53:00
9:24 AM,71.6,68.0,88,30.18,10.0,NNE,6.9,-,N/A,,Overcast,30,2013-01-07 14:24:00
9:53 AM,71.1,68.0,90,30.19,10.0,ENE,9.2,-,N/A,,Overcast,70,2013-01-07 14:53:00
10:02 AM,71.6,68.0,88,30.19,10.0,East,9.2,-,N/A,,Overcast,80,2013-01-07 15:02:00
10:53 AM,73.0,69.1,87,30.18,10.0,ENE,6.9,-,N/A,,Overcast,70,2013-01-07 15:53:00
11:53 AM,75.9,66.0,71,30.16,10.0,NNE,10.4,-,N/A,,Overcast,30,2013-01-07 16:53:00
12:53 PM,75.0,66.9,76,30.12,10.0,North,10.4,-,N/A,,Overcast,10,2013-01-07 17:53:00
1:53 PM,78.1,66.9,68,30.11,10.0,North,6.9,-,N/A,,Overcast,360,2013-01-07 18:53:00
2:53 PM,79.0,66.9,66,30.10,10.0,NE,9.2,-,N/A,,Clear,40,2013-01-07 19:53:00
3:53 PM,78.1,64.9,64,30.10,10.0,ENE,8.1,-,N/A,,Partly Cloudy,70,2013-01-07 20:53:00
4:53 PM,75.9,64.9,69,30.11,10.0,NE,8.1,-,N/A,,Clear,40,2013-01-07 21:53:00
5:53 PM,75.0,64.0,69,30.12,10.0,NE,5.8,-,N/A,,Overcast,40,2013-01-07 22:53:00
6:53 PM,73.9,66.0,76,30.14,10.0,NNE,6.9,-,N/A,,Overcast,30,2013-01-07 23:53:00
7:53 PM,72.0,66.0,81,30.15,10.0,North,4.6,-,N/A,,Partly Cloudy,10,2013-01-08 00:53:00
8:53 PM,72.0,68.0,87,30.16,10.0,North,3.5,-,N/A,,Mostly Cloudy,360,2013-01-08 01:53:00
9:53 PM,72.0,66.9,84,30.16,10.0,NE,3.5,-,N/A,,Partly Cloudy,40,2013-01-08 02:53:00
10:53 PM,71.1,66.9,87,30.14,10.0,NNE,4.6,-,N/A,,Clear,30,2013-01-08 03:53:00
11:53 PM,71.1,68.0,90,30.13,10.0,Calm,Calm,-,N/A,,Mostly Cloudy,0,2013-01-08 04:53:00